EW0704 Weather Reports


time (UTC)temp
C
wind
direction
speed
KPH
gust
KPH
rain 1hr
cm
rain 24hr
cm
rain mn
cm
humidity
%
barometer
mb
20260506172901 15 173 1.6 14.5 0.00 0.03 0.03 78 1008.2
20260506171907 16 181 1.6 14.5 0.00 0.00 0.03 77 1008.6
20260506165723 16 190 4.8 14.5 0.00 0.00 0.00 74 1009.3
20260506164711 16 194 4.8 20.9 0.00 0.00 0.00 73 1009.3
20260506163637 16 210 6.4 20.9 0.00 0.00 0.00 72 1009.3
20260506162624 17 228 4.8 29.0 0.00 0.00 0.00 72 1009.3
20260506161609 17 208 6.4 29.0 0.00 0.00 0.00 72 1009.3
20260506160617 17 149 6.4 25.7 0.00 0.00 0.00 71 1009.4
20260506154454 17 232 6.4 22.5 0.00 0.00 0.00 70 1009.7
20260506153505 17 205 6.4 20.9 0.00 0.00 0.00 70 1009.6
20260506152504 17 179 6.4 20.9 0.00 0.00 0.00 70 1009.9
20260506151444 17 206 6.4 30.6 0.00 0.00 0.00 70 1009.6
20260506150412 17 217 9.7 30.6 0.00 0.00 0.00 70 1009.5
20260506145354 17 173 11.3 30.6 0.00 0.00 0.00 69 1009.6
20260506144335 17 233 9.7 29.0 0.00 0.00 0.00 68 1009.6
20260506143350 18 192 9.7 30.6 0.00 0.00 0.00 68 1009.6
20260506142323 18 190 9.7 30.6 0.00 0.00 0.00 66 1009.7
20260506141334 18 201 6.4 25.7 0.00 0.00 0.00 68 1009.7
20260506140344 18 195 6.4 37.0 0.00 0.00 0.00 69 1009.7
20260506135351 17 197 11.3 37.0 0.00 0.00 0.00 69 1010.0
20260506134317 17 213 9.7 25.7 0.00 0.00 0.00 70 1009.9
20260506133304 17 172 6.4 25.7 0.00 0.00 0.00 72 1009.7
20260506132249 16 182 6.4 25.7 0.00 0.00 0.00 73 1009.6
20260506131230 16 174 6.4 22.5 0.00 0.00 0.00 73 1009.7
20260506130205 16 147 6.4 22.5 0.00 0.00 0.00 74 1009.6
20260506125226 16 204 4.8 22.5 0.00 0.00 0.00 75 1009.6
20260506124203 16 230 6.4 22.5 0.00 0.00 0.00 75 1009.9
20260506123144 16 184 6.4 20.9 0.00 0.00 0.00 75 1010.0
20260506120941 15 196 6.4 29.0 0.00 0.00 0.00 78 1010.2
20260506115916 15 158 6.4 29.0 0.00 0.00 0.00 79 1010.1
20260506114854 14 180 6.4 25.7 0.00 0.00 0.00 80 1010.1
20260506112715 13 199 4.8 19.3 0.00 0.00 0.00 82 1010.1
20260506111658 13 166 4.8 14.5 0.00 0.00 0.00 82 1010.0
20260506110626 13 182 1.6 17.7 0.00 0.00 0.00 82 1010.2
20260506105623 13 193 4.8 20.9 0.00 0.00 0.00 83 1010.2
20260506104614 13 171 4.8 20.9 0.00 0.00 0.00 82 1010.2
20260506103609 12 195 1.6 12.9 0.00 0.00 0.00 82 1009.9
20260506102634 12 205 1.6 9.7 0.00 0.00 0.00 82 1010.2
20260506101639 12 197 0.0 9.7 0.00 0.00 0.00 82 1010.1
20260506100637 12 208 1.6 0.0 0.00 0.00 0.00 81 1010.1
20260506095622 12 187 1.6 12.9 0.00 0.00 0.00 81 1010.1
20260506094615 12 191 0.0 9.7 0.00 0.00 0.00 81 1010.0
20260506093546 13 199 1.6 14.5 0.00 0.00 0.00 81 1010.0
20260506092543 13 248 1.6 14.5 0.00 0.00 0.00 81 1009.9
20260506091541 13 178 1.6 14.5 0.00 0.00 0.00 81 1010.0
20260506090540 13 195 1.6 14.5 0.00 0.00 0.00 80 1010.0
20260506084429 13 149 4.8 19.3 0.00 0.00 0.00 80 1010.2
20260506081213 13 193 1.6 17.7 0.00 0.00 0.00 79 1010.2
20260506080220 13 182 1.6 17.7 0.00 0.00 0.00 79 1010.1
20260506073058 13 209 1.6 14.5 0.00 0.00 0.00 78 1010.4
20260506072119 13 173 0.0 9.7 0.00 0.00 0.00 77 1010.4
20260506071135 13 208 4.8 19.3 0.00 0.00 0.00 77 1010.5
20260506070131 13 202 1.6 19.3 0.00 0.00 0.00 76 1010.4
20260506061904 15 205 4.8 14.5 0.00 0.00 0.00 74 1010.3
20260506060913 15 169 1.6 14.5 0.00 0.00 0.00 73 1010.3
20260506050840 16 198 6.4 19.3 0.00 0.00 0.00 71 1010.7
20260506043635 16 189 6.4 20.9 0.00 0.00 0.00 69 1010.7
20260506042622 16 201 4.8 20.9 0.00 0.00 0.00 68 1010.9
20260506041630 16 154 6.4 20.9 0.00 0.00 0.00 67 1010.9
20260506034305 16 192 6.4 22.5 0.00 0.00 0.00 66 1010.8
20260506033311 16 180 6.4 22.5 0.00 0.00 0.00 66 1010.8
20260506032314 16 218 6.4 20.9 0.00 0.00 0.00 65 1010.9
20260506031315 16 211 6.4 20.9 0.00 0.00 0.00 65 1010.9
20260506030313 16 188 6.4 19.3 0.00 0.00 0.00 65 1010.9
20260506025323 16 225 6.4 19.3 0.00 0.00 0.00 64 1010.9
20260506024326 16 198 6.4 25.7 0.00 0.00 0.00 64 1011.0
20260506020007 16 212 6.4 20.9 0.00 0.00 0.00 63 1010.7
20260506015029 16 170 6.4 19.3 0.00 0.00 0.00 62 1010.6
20260506014039 17 213 4.8 32.2 0.00 0.00 0.00 62 1010.5
20260506013012 17 196 6.4 32.2 0.00 0.00 0.00 61 1010.4
20260506011943 17 226 6.4 32.2 0.00 0.00 0.00 61 1010.2
20260506010944 17 136 6.4 32.2 0.00 0.00 0.00 60 1010.1
20260506005923 17 166 6.4 29.0 0.00 0.00 0.00 59 1010.0
20260506004938 17 213 6.4 25.7 0.00 0.00 0.00 58 1009.8
20260506003948 17 160 6.4 22.5 0.00 0.00 0.00 58 1009.7
20260506002919 17 189 9.7 25.7 0.00 0.00 0.00 57 1009.5
20260506001910 18 222 9.7 38.6 0.00 0.00 0.00 56 1009.4
20260506000857 18 206 11.3 38.6 0.00 0.00 0.00 55 1009.4
20260505235829 18 154 9.7 35.4 0.00 0.00 0.00 54 1009.3
20260505233738 18 205 11.3 41.8 0.00 0.00 0.00 54 1009.2
20260505232711 19 121 9.7 29.0 0.00 0.00 0.00 54 1009.0
20260505230614 20 171 6.4 32.2 0.00 0.00 0.00 53 1008.7
20260505225622 20 210 6.4 32.2 0.00 0.00 0.00 53 1008.6
20260505224636 20 140 6.4 19.3 0.00 0.00 0.00 53 1008.5
20260505223625 20 170 6.4 22.5 0.00 0.00 0.00 53 1008.5
20260505222612 20 179 6.4 25.7 0.00 0.00 0.00 53 1008.7
20260505221547 20 193 9.7 25.7 0.00 0.00 0.00 52 1008.7
20260505220553 21 208 9.7 25.7 0.00 0.00 0.00 51 1008.7
20260505215551 21 210 9.7 30.6 0.00 0.00 0.00 50 1008.6
20260505214524 22 192 9.7 30.6 0.00 0.00 0.00 49 1008.5
20260505213538 22 195 9.7 37.0 0.00 0.00 0.00 48 1008.2
20260505212558 22 179 9.7 38.6 0.00 0.00 0.00 47 1008.3
20260505210416 22 208 11.3 30.6 0.00 0.00 0.00 47 1008.2
20260505205435 23 219 9.7 30.6 0.00 0.00 0.00 46 1008.3
20260505204415 23 166 11.3 37.0 0.00 0.00 0.00 45 1008.2
20260505203350 24 211 11.3 37.0 0.00 0.00 0.00 44 1008.2
20260505202356 25 200 6.4 19.3 0.00 0.00 0.00 44 1008.3
20260505201405 24 162 6.4 25.7 0.00 0.00 0.00 43 1008.4
20260505195310 25 193 9.7 32.2 0.00 0.00 0.00 43 1008.5
20260505194311 25 225 9.7 32.2 0.00 0.00 0.00 43 1008.6
20260505193238 25 233 9.7 32.2 0.00 0.00 0.00 43 1008.6
20260505192256 25 174 11.3 32.2 0.00 0.00 0.00 43 1008.7
20260505191310 25 188 6.4 37.0 0.00 0.00 0.00 42 1008.9
20260505190254 25 192 9.7 37.0 0.00 0.00 0.00 43 1009.0
20260505185226 25 167 6.4 29.0 0.00 0.00 0.00 43 1009.1
20260505183009 25 211 6.4 35.4 0.00 0.00 0.00 44 1009.3
20260505182001 25 136 9.7 35.4 0.00 0.00 0.00 44 1009.2
20260505180945 25 192 9.7 29.0 0.00 0.00 0.00 44 1009.2
20260505180008 25 125 6.4 30.6 0.00 0.00 0.00 45 1009.2
20260505174935 25 189 9.7 37.0 0.00 0.00 0.00 45 1009.2